Terminal Aerodrome Forecast
Issued by NWS

Home | Current Version | Previous Version | Text Only | Print | Product List | Glossary On
Versions: 1 2 3 4 5 6 7 8 9 10 11 12 13 14 15 16 17 18
000
FTUS45 KGGW 250100 AAA
TAFSDY
TAF AMD
KSDY 250141Z 2502/2524 32006KT P6SM OVC130
     FM250900 35007KT P6SM BKN023 BKN030
     FM251200 34011KT P6SM BKN017
      AMD LTD TO CLD VIS AND WIND=

USA.gov is the U.S. government's official web portal to all federal, state and local government web resources and services.